Time,TemperatureF,DewpointF,PressureIn,WindDirection,WindDirectionDegrees,WindSpeedMPH,WindSpeedGustMPH,Humidity,HourlyPrecipIn,Conditions,Clouds,dailyrainin,SoftwareType,DateUTC
2013-02-21 00:01:00,26.4,13.2,29.64,West,277,5.0,6.0,57,0.00,,,0.00,Wunderground v.1.12,2013-02-21 05:01:00,
2013-02-21 00:03:00,26.4,13.2,29.64,West,279,6.0,13.0,57,0.00,,,0.00,Wunderground v.1.12,2013-02-21 05:03:00,
2013-02-21 00:04:00,26.4,13.2,29.64,WSW,258,6.0,6.0,57,0.00,,,0.00,Wunderground v.1.12,2013-02-21 05:04:00,
2013-02-21 00:06:00,26.4,13.6,29.63,West,270,8.0,18.0,58,0.00,,,0.00,Wunderground v.1.12,2013-02-21 05:06:00,
2013-02-21 00:09:00,26.4,13.6,29.64,WNW,286,7.0,7.0,58,0.00,,,0.00,Wunderground v.1.12,2013-02-21 05:09:00,
2013-02-21 00:14:00,26.3,13.5,29.63,WSW,237,8.0,8.0,58,0.00,,,0.00,Wunderground v.1.12,2013-02-21 05:14:00,
2013-02-21 00:20:00,26.3,13.5,29.63,WNW,286,8.0,12.0,58,0.00,,,0.00,Wunderground v.1.12,2013-02-21 05:20:00,
2013-02-21 00:25:00,26.4,13.2,29.63,WNW,303,9.0,11.0,57,0.00,,,0.00,Wunderground v.1.12,2013-02-21 05:25:00,
2013-02-21 00:30:00,26.4,13.6,29.63,WNW,298,9.0,14.0,58,0.00,,,0.00,Wunderground v.1.12,2013-02-21 05:30:00,
2013-02-21 00:35:00,26.3,13.5,29.63,West,265,8.0,9.0,58,0.00,,,0.00,Wunderground v.1.12,2013-02-21 05:35:00,
2013-02-21 00:36:00,26.4,13.6,29.63,West,270,8.0,18.0,58,0.00,,,0.00,Wunderground v.1.12,2013-02-21 05:36:00,
2013-02-21 00:41:00,26.3,13.5,29.63,West,280,8.0,16.0,58,0.00,,,0.00,Wunderground v.1.12,2013-02-21 05:41:00,
2013-02-21 00:48:00,26.3,13.9,29.63,WSW,252,8.0,11.0,59,0.00,,,0.00,Wunderground v.1.12,2013-02-21 05:48:00,
2013-02-21 00:54:00,26.4,13.6,29.63,West,269,9.0,9.0,58,0.00,,,0.00,Wunderground v.1.12,2013-02-21 05:54:00,
2013-02-21 01:00:00,26.3,13.5,29.63,WNW,285,9.0,9.0,58,0.00,,,0.00,Wunderground v.1.12,2013-02-21 06:00:00,
2013-02-21 01:05:00,26.3,13.9,29.63,SW,226,7.0,10.0,59,0.00,,,0.00,Wunderground v.1.12,2013-02-21 06:05:00,
2013-02-21 01:07:00,26.3,13.5,29.63,West,270,8.0,19.0,58,0.00,,,0.00,Wunderground v.1.12,2013-02-21 06:07:00,
2013-02-21 01:10:00,26.1,13.7,29.63,West,260,8.0,8.0,59,0.00,,,0.00,Wunderground v.1.12,2013-02-21 06:10:00,
2013-02-21 01:16:00,26.1,13.7,29.63,West,269,8.0,10.0,59,0.00,,,0.00,Wunderground v.1.12,2013-02-21 06:16:00,
2013-02-21 01:21:00,26.0,13.6,29.63,West,279,8.0,10.0,59,0.00,,,0.00,Wunderground v.1.12,2013-02-21 06:21:00,
2013-02-21 01:28:00,26.0,13.6,29.63,West,262,8.0,9.0,59,0.00,,,0.00,Wunderground v.1.12,2013-02-21 06:28:00,
2013-02-21 01:33:00,26.0,13.6,29.63,WSW,246,9.0,10.0,59,0.00,,,0.00,Wunderground v.1.12,2013-02-21 06:33:00,
2013-02-21 01:38:00,26.0,13.6,29.63,WSW,257,9.0,13.0,59,0.00,,,0.00,Wunderground v.1.12,2013-02-21 06:38:00,
2013-02-21 01:44:00,26.0,13.6,29.63,West,279,9.0,9.0,59,0.00,,,0.00,Wunderground v.1.12,2013-02-21 06:44:00,
2013-02-21 01:50:00,26.0,13.6,29.63,West,281,9.0,9.0,59,0.00,,,0.00,Wunderground v.1.12,2013-02-21 06:50:00,
2013-02-21 01:55:00,26.0,13.6,29.63,West,275,10.0,13.0,59,0.00,,,0.00,Wunderground v.1.12,2013-02-21 06:55:00,
2013-02-21 02:01:00,25.8,13.4,29.63,WSW,246,10.0,10.0,59,0.00,,,0.00,Wunderground v.1.12,2013-02-21 07:01:00,
2013-02-21 02:06:00,25.8,13.4,29.63,WNW,290,9.0,16.0,59,0.00,,,0.00,Wunderground v.1.12,2013-02-21 07:06:00,
2013-02-21 02:07:00,26.0,13.6,29.63,West,270,9.0,19.0,59,0.00,,,0.00,Wunderground v.1.12,2013-02-21 07:07:00,
2013-02-21 02:13:00,25.8,13.4,29.63,West,280,11.0,16.0,59,0.00,,,0.00,Wunderground v.1.12,2013-02-21 07:13:00,
2013-02-21 02:18:00,25.8,13.4,29.63,WNW,292,11.0,13.0,59,0.00,,,0.00,Wunderground v.1.12,2013-02-21 07:18:00,
2013-02-21 02:23:00,25.8,13.4,29.63,West,262,11.0,14.0,59,0.00,,,0.00,Wunderground v.1.12,2013-02-21 07:23:00,
2013-02-21 02:28:00,25.7,13.3,29.63,West,273,11.0,14.0,59,0.00,,,0.00,Wunderground v.1.12,2013-02-21 07:28:00,
2013-02-21 02:34:00,25.7,13.3,29.62,West,261,11.0,20.0,59,0.00,,,0.00,Wunderground v.1.12,2013-02-21 07:34:00,
2013-02-21 02:38:00,25.7,13.3,29.62,West,270,10.0,20.0,59,0.00,,,0.00,Wunderground v.1.12,2013-02-21 07:38:00,
2013-02-21 02:40:00,25.7,13.3,29.62,West,270,10.0,20.0,59,0.00,,,0.00,Wunderground v.1.12,2013-02-21 07:40:00,
2013-02-21 02:41:00,25.7,13.3,29.62,West,260,11.0,13.0,59,0.00,,,0.00,Wunderground v.1.12,2013-02-21 07:41:00,
2013-02-21 02:42:00,25.7,13.3,29.62,West,270,10.0,20.0,59,0.00,,,0.00,Wunderground v.1.12,2013-02-21 07:42:00,
2013-02-21 02:48:00,25.7,13.3,29.62,West,277,11.0,11.0,59,0.00,,,0.00,Wunderground v.1.12,2013-02-21 07:48:00,
2013-02-21 02:53:00,25.6,13.2,29.62,WSW,254,12.0,15.0,59,0.00,,,0.00,Wunderground v.1.12,2013-02-21 07:53:00,
2013-02-21 02:58:00,25.6,13.2,29.62,WNW,285,12.0,17.0,59,0.00,,,0.00,Wunderground v.1.12,2013-02-21 07:58:00,
2013-02-21 03:03:00,25.6,13.2,29.62,WNW,288,13.0,16.0,59,0.00,,,0.00,Wunderground v.1.12,2013-02-21 08:03:00,
2013-02-21 03:06:00,25.6,13.2,29.62,West,270,12.0,22.0,59,0.00,,,0.00,Wunderground v.1.12,2013-02-21 08:06:00,
2013-02-21 03:09:00,25.4,13.1,29.62,WSW,258,13.0,13.0,59,0.00,,,0.00,Wunderground v.1.12,2013-02-21 08:09:00,
2013-02-21 03:15:00,25.4,13.1,29.62,West,274,11.0,16.0,59,0.00,,,0.00,Wunderground v.1.12,2013-02-21 08:15:00,
2013-02-21 03:22:00,25.4,13.1,29.62,WNW,286,14.0,19.0,59,0.00,,,0.00,Wunderground v.1.12,2013-02-21 08:22:00,
2013-02-21 03:28:00,25.4,13.1,29.62,West,278,14.0,19.0,59,0.00,,,0.00,Wunderground v.1.12,2013-02-21 08:28:00,
2013-02-21 03:33:00,25.4,13.1,29.61,WNW,288,13.0,16.0,59,0.00,,,0.00,Wunderground v.1.12,2013-02-21 08:33:00,
2013-02-21 03:35:00,25.4,13.1,29.61,West,270,13.0,24.0,59,0.00,,,0.00,Wunderground v.1.12,2013-02-21 08:35:00,
2013-02-21 03:38:00,25.4,13.1,29.61,WSW,255,12.0,13.0,59,0.00,,,0.00,Wunderground v.1.12,2013-02-21 08:38:00,
2013-02-21 03:43:00,25.4,13.1,29.61,West,278,10.0,12.0,59,0.00,,,0.00,Wunderground v.1.12,2013-02-21 08:43:00,
2013-02-21 03:49:00,25.6,12.9,29.62,WSW,254,9.0,19.0,58,0.00,,,0.00,Wunderground v.1.12,2013-02-21 08:49:00,
2013-02-21 03:54:00,25.6,12.9,29.62,WSW,251,10.0,10.0,58,0.00,,,0.00,Wunderground v.1.12,2013-02-21 08:54:00,
2013-02-21 03:59:00,25.6,12.9,29.63,WNW,283,9.0,9.0,58,0.00,,,0.00,Wunderground v.1.12,2013-02-21 08:59:00,
2013-02-21 04:04:00,25.4,12.7,29.63,West,268,7.0,7.0,58,0.00,,,0.00,Wunderground v.1.12,2013-02-21 09:04:00,
2013-02-21 04:07:00,25.6,12.9,29.63,West,270,10.0,22.0,58,0.00,,,0.00,Wunderground v.1.12,2013-02-21 09:07:00,
2013-02-21 04:10:00,25.3,12.6,29.63,West,268,6.0,8.0,58,0.00,,,0.00,Wunderground v.1.12,2013-02-21 09:10:00,
2013-02-21 04:15:00,25.1,12.4,29.63,WSW,257,7.0,15.0,58,0.00,,,0.00,Wunderground v.1.12,2013-02-21 09:15:00,
2013-02-21 04:20:00,25.0,12.7,29.63,WNW,294,7.0,10.0,59,0.00,,,0.00,Wunderground v.1.12,2013-02-21 09:20:00,
2013-02-21 04:26:00,25.1,12.4,29.63,West,281,8.0,16.0,58,0.00,,,0.00,Wunderground v.1.12,2013-02-21 09:26:00,
2013-02-21 04:32:00,25.0,12.3,29.64,West,279,9.0,10.0,58,0.00,,,0.00,Wunderground v.1.12,2013-02-21 09:32:00,
2013-02-21 04:36:00,25.0,11.9,29.64,WNW,288,8.0,8.0,57,0.00,,,0.00,Wunderground v.1.12,2013-02-21 09:36:00,
2013-02-21 04:37:00,25.0,12.3,29.64,West,270,7.0,17.0,58,0.00,,,0.00,Wunderground v.1.12,2013-02-21 09:37:00,
2013-02-21 04:43:00,24.8,12.1,29.64,West,265,7.0,12.0,58,0.00,,,0.00,Wunderground v.1.12,2013-02-21 09:43:00,
2013-02-21 04:48:00,24.7,12.0,29.64,West,275,6.0,7.0,58,0.00,,,0.00,Wunderground v.1.12,2013-02-21 09:48:00,
2013-02-21 04:53:00,24.5,11.8,29.64,West,263,5.0,10.0,58,0.00,,,0.00,Wunderground v.1.12,2013-02-21 09:53:00,
2013-02-21 04:58:00,24.4,11.7,29.64,WNW,290,5.0,6.0,58,0.00,,,0.00,Wunderground v.1.12,2013-02-21 09:58:00,
2013-02-21 05:03:00,24.4,12.1,29.65,WNW,283,4.0,7.0,59,0.00,,,0.00,Wunderground v.1.12,2013-02-21 10:03:00,
2013-02-21 05:08:00,24.4,12.1,29.65,West,270,6.0,13.0,59,0.00,,,0.00,Wunderground v.1.12,2013-02-21 10:08:00,
2013-02-21 05:10:00,24.1,11.8,29.65,WSW,255,4.0,5.0,59,0.00,,,0.00,Wunderground v.1.12,2013-02-21 10:10:00,
2013-02-21 05:15:00,24.1,11.8,29.66,West,269,5.0,5.0,59,0.00,,,0.00,Wunderground v.1.12,2013-02-21 10:15:00,
2013-02-21 05:21:00,23.8,11.9,29.66,West,276,4.0,8.0,60,0.00,,,0.00,Wunderground v.1.12,2013-02-21 10:21:00,
2013-02-21 05:26:00,23.8,11.9,29.66,West,265,5.0,6.0,60,0.00,,,0.00,Wunderground v.1.12,2013-02-21 10:26:00,
2013-02-21 05:31:00,23.8,11.9,29.66,West,279,5.0,6.0,60,0.00,,,0.00,Wunderground v.1.12,2013-02-21 10:31:00,
2013-02-21 05:36:00,23.8,11.9,29.66,West,270,4.0,12.0,60,0.00,,,0.00,Wunderground v.1.12,2013-02-21 10:36:00,
2013-02-21 05:38:00,23.5,12.0,29.66,WSW,249,4.0,5.0,61,0.00,,,0.00,Wunderground v.1.12,2013-02-21 10:38:00,
2013-02-21 05:43:00,23.6,12.1,29.66,WNW,288,5.0,10.0,61,0.00,,,0.00,Wunderground v.1.12,2013-02-21 10:43:00,
2013-02-21 05:49:00,23.8,11.5,29.67,WSW,258,9.0,9.0,59,0.00,,,0.00,Wunderground v.1.12,2013-02-21 10:49:00,
2013-02-21 05:55:00,23.6,11.4,29.67,West,273,9.0,15.0,59,0.00,,,0.00,Wunderground v.1.12,2013-02-21 10:55:00,
2013-02-21 06:00:00,23.8,10.8,29.67,West,261,8.0,12.0,57,0.00,,,0.00,Wunderground v.1.12,2013-02-21 11:00:00,
2013-02-21 06:06:00,23.9,10.5,29.67,West,279,10.0,14.0,56,0.00,,,0.00,Wunderground v.1.12,2013-02-21 11:06:00,
2013-02-21 06:08:00,23.8,11.2,29.67,West,270,7.0,21.0,58,0.00,,,0.00,Wunderground v.1.12,2013-02-21 11:08:00,
2013-02-21 06:11:00,23.9,10.5,29.67,West,280,10.0,14.0,56,0.00,,,0.00,Wunderground v.1.12,2013-02-21 11:11:00,
2013-02-21 06:18:00,23.9,10.1,29.68,WNW,288,9.0,11.0,55,0.00,,,0.00,Wunderground v.1.12,2013-02-21 11:18:00,
2013-02-21 06:23:00,23.8,10.0,29.68,WNW,293,9.0,9.0,55,0.00,,,0.00,Wunderground v.1.12,2013-02-21 11:23:00,
2013-02-21 06:28:00,23.6,9.4,29.68,West,264,9.0,17.0,54,0.00,,,0.00,Wunderground v.1.12,2013-02-21 11:28:00,
2013-02-21 06:34:00,23.6,9.4,29.67,WNW,295,10.0,19.0,54,0.00,,,0.00,Wunderground v.1.12,2013-02-21 11:34:00,
2013-02-21 06:38:00,23.6,11.0,29.67,West,270,9.0,22.0,58,0.00,,,0.00,Wunderground v.1.12,2013-02-21 11:38:00,
2013-02-21 06:39:00,23.5,9.3,29.67,WNW,286,12.0,13.0,54,0.00,,,0.00,Wunderground v.1.12,2013-02-21 11:39:00,
2013-02-21 06:44:00,23.5,9.3,29.67,West,269,13.0,17.0,54,0.00,,,0.00,Wunderground v.1.12,2013-02-21 11:44:00,
2013-02-21 06:50:00,23.3,9.1,29.67,WSW,254,12.0,12.0,54,0.00,,,0.00,Wunderground v.1.12,2013-02-21 11:50:00,
2013-02-21 06:55:00,23.3,9.1,29.67,WSW,249,10.0,11.0,54,0.00,,,0.00,Wunderground v.1.12,2013-02-21 11:55:00,
2013-02-21 07:01:00,23.3,8.7,29.67,WNW,289,11.0,13.0,53,0.00,,,0.00,Wunderground v.1.12,2013-02-21 12:01:00,
2013-02-21 07:06:00,23.3,8.2,29.67,West,270,12.0,26.0,52,0.00,,,0.00,Wunderground v.1.12,2013-02-21 12:06:00,
2013-02-21 07:08:00,23.3,8.7,29.67,WSW,249,12.0,20.0,53,0.00,,,0.00,Wunderground v.1.12,2013-02-21 12:08:00,
2013-02-21 07:13:00,23.2,9.0,29.67,WNW,284,10.0,13.0,54,0.00,,,0.00,Wunderground v.1.12,2013-02-21 12:13:00,
2013-02-21 07:19:00,23.2,8.6,29.68,WSW,256,10.0,10.0,53,0.00,,,0.00,Wunderground v.1.12,2013-02-21 12:19:00,
2013-02-21 07:24:00,23.0,8.4,29.68,WNW,290,12.0,13.0,53,0.00,,,0.00,Wunderground v.1.12,2013-02-21 12:24:00,
2013-02-21 07:29:00,23.0,8.4,29.68,West,275,11.0,12.0,53,0.00,,,0.00,Wunderground v.1.12,2013-02-21 12:29:00,
2013-02-21 07:36:00,22.9,8.7,29.68,West,268,10.0,10.0,54,0.00,,,0.00,Wunderground v.1.12,2013-02-21 12:36:00,
2013-02-21 07:40:00,22.7,8.5,29.68,West,278,8.0,11.0,54,0.00,,,0.00,Wunderground v.1.12,2013-02-21 12:40:00,
2013-02-21 07:45:00,22.5,8.3,29.69,West,281,9.0,9.0,54,0.00,,,0.00,Wunderground v.1.12,2013-02-21 12:45:00,
2013-02-21 07:51:00,22.5,8.3,29.69,WNW,296,11.0,12.0,54,0.00,,,0.00,Wunderground v.1.12,2013-02-21 12:51:00,
2013-02-21 07:58:00,22.9,7.9,29.69,NW,310,13.0,15.0,52,0.00,,,0.00,Wunderground v.1.12,2013-02-21 12:58:00,
2013-02-21 08:03:00,23.0,8.0,29.69,West,269,12.0,13.0,52,0.00,,,0.00,Wunderground v.1.12,2013-02-21 13:03:00,
2013-02-21 08:06:00,22.9,7.9,29.69,West,270,11.0,26.0,52,0.00,,,0.00,Wunderground v.1.12,2013-02-21 13:06:00,
2013-02-21 08:08:00,23.2,8.2,29.69,WNW,298,10.0,14.0,52,0.00,,,0.00,Wunderground v.1.12,2013-02-21 13:08:00,
2013-02-21 08:14:00,22.9,7.9,29.69,West,272,10.0,13.0,52,0.00,,,0.00,Wunderground v.1.12,2013-02-21 13:14:00,
2013-02-21 08:20:00,22.9,7.4,29.69,West,281,10.0,11.0,51,0.00,,,0.00,Wunderground v.1.12,2013-02-21 13:20:00,
2013-02-21 08:26:00,22.9,7.4,29.69,West,279,10.0,12.0,51,0.00,,,0.00,Wunderground v.1.12,2013-02-21 13:26:00,
2013-02-21 08:31:00,23.0,7.5,29.69,West,281,9.0,13.0,51,0.00,,,0.00,Wunderground v.1.12,2013-02-21 13:31:00,
2013-02-21 08:38:00,23.2,7.7,29.69,WNW,294,8.0,10.0,51,0.00,,,0.00,Wunderground v.1.12,2013-02-21 13:38:00,
2013-02-21 08:43:00,23.6,7.2,29.69,WNW,282,9.0,18.0,49,0.00,,,0.00,Wunderground v.1.12,2013-02-21 13:43:00,
2013-02-21 08:50:00,23.9,8.4,29.69,West,271,9.0,9.0,51,0.00,,,0.00,Wunderground v.1.12,2013-02-21 13:50:00,
2013-02-21 08:55:00,24.2,8.2,29.69,NW,306,7.0,7.0,50,0.00,,,0.00,Wunderground v.1.12,2013-02-21 13:55:00,
2013-02-21 09:00:00,24.2,8.2,29.69,West,276,7.0,11.0,50,0.00,,,0.00,Wunderground v.1.12,2013-02-21 14:00:00,
2013-02-21 09:05:00,23.9,7.9,29.69,WNW,298,7.0,13.0,50,0.00,,,0.00,Wunderground v.1.12,2013-02-21 14:05:00,
2013-02-21 09:06:00,24.2,7.8,29.69,West,270,8.0,22.0,49,0.00,,,0.00,Wunderground v.1.12,2013-02-21 14:06:00,
2013-02-21 09:11:00,23.9,7.5,29.69,NW,306,9.0,15.0,49,0.00,,,0.00,Wunderground v.1.12,2013-02-21 14:11:00,
2013-02-21 09:16:00,24.1,7.7,29.68,NW,306,11.0,13.0,49,0.00,,,0.00,Wunderground v.1.12,2013-02-21 14:16:00,
2013-02-21 09:23:00,24.1,7.7,29.68,WNW,282,8.0,14.0,49,0.00,,,0.00,Wunderground v.1.12,2013-02-21 14:23:00,
2013-02-21 09:28:00,24.1,7.7,29.68,West,274,8.0,12.0,49,0.00,,,0.00,Wunderground v.1.12,2013-02-21 14:28:00,
2013-02-21 09:33:00,24.1,7.7,29.69,WNW,294,9.0,16.0,49,0.00,,,0.00,Wunderground v.1.12,2013-02-21 14:33:00,
2013-02-21 09:37:00,24.1,8.1,29.69,WNW,293,9.0,23.0,50,0.00,,,0.00,Wunderground v.1.12,2013-02-21 14:37:00,
2013-02-21 09:39:00,23.8,8.3,29.69,WNW,297,10.0,15.0,51,0.00,,,0.00,Wunderground v.1.12,2013-02-21 14:39:00,
2013-02-21 09:44:00,23.6,8.1,29.69,NW,306,9.0,9.0,51,0.00,,,0.00,Wunderground v.1.12,2013-02-21 14:44:00,
2013-02-21 09:49:00,23.6,8.1,29.69,WNW,296,10.0,21.0,51,0.00,,,0.00,Wunderground v.1.12,2013-02-21 14:49:00,
2013-02-21 09:55:00,23.6,7.7,29.69,West,269,12.0,12.0,50,0.00,,,0.00,Wunderground v.1.12,2013-02-21 14:55:00,
2013-02-21 10:01:00,23.5,8.0,29.69,WNW,292,11.0,11.0,51,0.00,,,0.00,Wunderground v.1.12,2013-02-21 15:01:00,
2013-02-21 10:06:00,23.5,8.0,29.69,WNW,286,12.0,14.0,51,0.00,,,0.00,Wunderground v.1.12,2013-02-21 15:06:00,
2013-02-21 10:11:00,23.6,6.8,29.69,WNW,286,12.0,12.0,48,0.00,,,0.00,Wunderground v.1.12,2013-02-21 15:11:00,
2013-02-21 10:16:00,23.8,7.8,29.70,WNW,300,13.0,13.0,50,0.00,,,0.00,Wunderground v.1.12,2013-02-21 15:16:00,
2013-02-21 10:23:00,24.1,7.2,29.70,WNW,292,12.0,13.0,48,0.00,,,0.00,Wunderground v.1.12,2013-02-21 15:23:00,
2013-02-21 10:28:00,24.5,8.9,29.70,WNW,300,11.0,11.0,51,0.00,,,0.00,Wunderground v.1.12,2013-02-21 15:28:00,
2013-02-21 10:34:00,24.7,8.2,29.69,NNW,337,11.0,14.0,49,0.00,,,0.00,Wunderground v.1.12,2013-02-21 15:34:00,
2013-02-21 10:37:00,24.7,8.2,29.69,WNW,293,11.0,23.0,49,0.00,,,0.00,Wunderground v.1.12,2013-02-21 15:37:00,
2013-02-21 10:39:00,24.8,7.4,29.69,West,267,11.0,20.0,47,0.00,,,0.00,Wunderground v.1.12,2013-02-21 15:39:00,
2013-02-21 10:45:00,25.1,7.2,29.70,West,269,9.0,15.0,46,0.00,,,0.00,Wunderground v.1.12,2013-02-21 15:45:00,
2013-02-21 10:50:00,25.1,7.2,29.70,WNW,284,10.0,10.0,46,0.00,,,0.00,Wunderground v.1.12,2013-02-21 15:50:00,
2013-02-21 10:55:00,25.6,8.1,29.70,WNW,284,9.0,10.0,47,0.00,,,0.00,Wunderground v.1.12,2013-02-21 15:55:00,
2013-02-21 11:01:00,25.3,7.4,29.70,West,281,9.0,12.0,46,0.00,,,0.00,Wunderground v.1.12,2013-02-21 16:01:00,
2013-02-21 11:06:00,25.6,7.7,29.70,West,260,11.0,12.0,46,0.00,,,0.00,Wunderground v.1.12,2013-02-21 16:06:00,
2013-02-21 11:07:00,25.1,6.7,29.70,WNW,293,10.0,27.0,45,0.00,,,0.00,Wunderground v.1.12,2013-02-21 16:07:00,
2013-02-21 11:13:00,26.3,7.8,29.70,WNW,292,8.0,15.0,45,0.00,,,0.00,Wunderground v.1.12,2013-02-21 16:13:00,
2013-02-21 11:19:00,26.0,8.5,29.70,West,277,7.0,10.0,47,0.00,,,0.00,Wunderground v.1.12,2013-02-21 16:19:00,
2013-02-21 11:24:00,26.4,9.3,29.70,WNW,300,8.0,9.0,48,0.00,,,0.00,Wunderground v.1.12,2013-02-21 16:24:00,
2013-02-21 11:30:00,26.3,7.3,29.70,WNW,295,9.0,17.0,44,0.00,,,0.00,Wunderground v.1.12,2013-02-21 16:30:00,
2013-02-21 11:35:00,26.1,7.6,29.70,WNW,296,12.0,19.0,45,0.00,,,0.00,Wunderground v.1.12,2013-02-21 16:35:00,
2013-02-21 11:37:00,26.1,7.6,29.70,West,270,9.0,21.0,45,0.00,,,0.00,Wunderground v.1.12,2013-02-21 16:37:00,
2013-02-21 11:40:00,26.4,8.9,29.70,WSW,253,11.0,12.0,47,0.00,,,0.00,Wunderground v.1.12,2013-02-21 16:40:00,
2013-02-21 11:46:00,26.9,8.8,29.70,WNW,290,9.0,11.0,46,0.00,,,0.00,Wunderground v.1.12,2013-02-21 16:46:00,
2013-02-21 11:51:00,27.2,9.6,29.70,West,267,9.0,10.0,47,0.00,,,0.00,Wunderground v.1.12,2013-02-21 16:51:00,
2013-02-21 11:56:00,27.3,8.2,29.70,West,278,9.0,13.0,44,0.00,,,0.00,Wunderground v.1.12,2013-02-21 16:56:00,
2013-02-21 12:03:00,27.5,8.9,29.70,WNW,283,8.0,10.0,45,0.00,,,0.00,Wunderground v.1.12,2013-02-21 17:03:00,
2013-02-21 12:06:00,27.5,9.4,29.70,West,270,9.0,23.0,46,0.00,,,0.00,Wunderground v.1.12,2013-02-21 17:06:00,
2013-02-21 12:08:00,27.6,9.0,29.70,West,273,8.0,13.0,45,0.00,,,0.00,Wunderground v.1.12,2013-02-21 17:08:00,
2013-02-21 12:13:00,27.8,9.7,29.70,NW,321,7.0,11.0,46,0.00,,,0.00,Wunderground v.1.12,2013-02-21 17:13:00,
2013-02-21 12:19:00,28.2,10.0,29.70,WNW,295,7.0,7.0,46,0.00,,,0.00,Wunderground v.1.12,2013-02-21 17:19:00,
2013-02-21 12:25:00,28.5,10.8,29.70,NW,321,6.0,6.0,47,0.00,,,0.00,Wunderground v.1.12,2013-02-21 17:25:00,
2013-02-21 12:30:00,28.5,9.3,29.70,NW,317,6.0,11.0,44,0.00,,,0.00,Wunderground v.1.12,2013-02-21 17:30:00,
2013-02-21 12:36:00,29.0,10.8,29.70,WNW,299,6.0,10.0,46,0.00,,,0.00,Wunderground v.1.12,2013-02-21 17:36:00,
2013-02-21 12:37:00,28.7,9.5,29.70,WNW,293,7.0,18.0,44,0.00,,,0.00,Wunderground v.1.12,2013-02-21 17:37:00,
2013-02-21 12:43:00,28.4,10.2,29.70,WNW,303,8.0,15.0,46,0.00,,,0.00,Wunderground v.1.12,2013-02-21 17:43:00,
2013-02-21 12:48:00,28.5,8.8,29.70,West,269,9.0,17.0,43,0.00,,,0.00,Wunderground v.1.12,2013-02-21 17:48:00,
2013-02-21 12:53:00,28.1,9.9,29.70,NW,306,9.0,21.0,46,0.00,,,0.00,Wunderground v.1.12,2013-02-21 17:53:00,
2013-02-21 12:58:00,28.2,9.5,29.70,NNW,327,9.0,14.0,45,0.00,,,0.00,Wunderground v.1.12,2013-02-21 17:58:00,
2013-02-21 13:03:00,27.9,8.3,29.70,WNW,300,10.0,14.0,43,0.00,,,0.00,Wunderground v.1.12,2013-02-21 18:03:00,
2013-02-21 13:07:00,28.2,8.0,29.70,WNW,293,8.0,21.0,42,0.00,,,0.00,Wunderground v.1.12,2013-02-21 18:07:00,
2013-02-21 13:09:00,28.7,9.5,29.70,NW,311,8.0,8.0,44,0.00,,,0.00,Wunderground v.1.12,2013-02-21 18:09:00,
2013-02-21 13:14:00,28.5,8.8,29.70,WNW,300,8.0,8.0,43,0.00,,,0.00,Wunderground v.1.12,2013-02-21 18:14:00,
2013-02-21 13:19:00,28.2,8.5,29.70,West,280,11.0,12.0,43,0.00,,,0.00,Wunderground v.1.12,2013-02-21 18:19:00,
2013-02-21 13:24:00,28.4,9.7,29.70,WNW,285,12.0,12.0,45,0.00,,,0.00,Wunderground v.1.12,2013-02-21 18:24:00,
2013-02-21 13:30:00,28.5,9.8,29.71,WNW,300,9.0,10.0,45,0.00,,,0.00,Wunderground v.1.12,2013-02-21 18:30:00,
2013-02-21 13:35:00,28.8,10.1,29.71,WNW,288,7.0,15.0,45,0.00,,,0.00,Wunderground v.1.12,2013-02-21 18:35:00,
2013-02-21 13:36:00,28.5,9.3,29.71,WNW,293,9.0,22.0,44,0.00,,,0.00,Wunderground v.1.12,2013-02-21 18:36:00,
2013-02-21 13:41:00,29.0,11.3,29.71,WNW,302,8.0,16.0,47,0.00,,,0.00,Wunderground v.1.12,2013-02-21 18:41:00,
2013-02-21 13:46:00,29.1,12.3,29.71,WNW,286,9.0,10.0,49,0.00,,,0.00,Wunderground v.1.12,2013-02-21 18:46:00,
2013-02-21 13:53:00,29.0,10.3,29.71,WNW,294,9.0,17.0,45,0.00,,,0.00,Wunderground v.1.12,2013-02-21 18:53:00,
2013-02-21 13:58:00,29.0,10.3,29.71,WNW,294,9.0,15.0,45,0.00,,,0.00,Wunderground v.1.12,2013-02-21 18:58:00,
2013-02-21 14:03:00,29.0,10.3,29.71,West,273,9.0,18.0,45,0.00,,,0.00,Wunderground v.1.12,2013-02-21 19:03:00,
2013-02-21 14:06:00,29.1,10.4,29.71,WNW,293,8.0,20.0,45,0.00,,,0.00,Wunderground v.1.12,2013-02-21 19:06:00,
2013-02-21 14:08:00,28.7,9.5,29.71,WNW,290,10.0,17.0,44,0.00,,,0.00,Wunderground v.1.12,2013-02-21 19:08:00,
2013-02-21 14:13:00,28.7,10.5,29.71,NNW,338,8.0,10.0,46,0.00,,,0.00,Wunderground v.1.12,2013-02-21 19:13:00,
2013-02-21 14:19:00,28.5,10.8,29.72,NW,307,7.0,7.0,47,0.00,,,0.00,Wunderground v.1.12,2013-02-21 19:19:00,
2013-02-21 14:25:00,28.4,10.7,29.72,WNW,296,7.0,7.0,47,0.00,,,0.00,Wunderground v.1.12,2013-02-21 19:25:00,
2013-02-21 14:31:00,27.9,10.2,29.73,WNW,295,8.0,11.0,47,0.00,,,0.00,Wunderground v.1.12,2013-02-21 19:31:00,
2013-02-21 14:38:00,27.9,9.3,29.73,WNW,293,8.0,21.0,45,0.00,,,0.00,Wunderground v.1.12,2013-02-21 19:38:00,
2013-02-21 14:39:00,27.5,10.8,29.73,NNW,327,9.0,10.0,49,0.00,,,0.00,Wunderground v.1.12,2013-02-21 19:39:00,
2013-02-21 14:44:00,27.5,9.9,29.74,WNW,298,7.0,7.0,47,0.00,,,0.00,Wunderground v.1.12,2013-02-21 19:44:00,
2013-02-21 14:50:00,27.2,9.6,29.74,WNW,283,8.0,8.0,47,0.00,,,0.00,Wunderground v.1.12,2013-02-21 19:50:00,
2013-02-21 14:56:00,27.2,8.1,29.74,NW,305,9.0,12.0,44,0.00,,,0.00,Wunderground v.1.12,2013-02-21 19:56:00,
2013-02-21 15:03:00,27.5,10.4,29.74,WNW,298,8.0,11.0,48,0.00,,,0.00,Wunderground v.1.12,2013-02-21 20:03:00,
2013-02-21 15:06:00,27.2,10.1,29.74,WNW,293,8.0,19.0,48,0.00,,,0.00,Wunderground v.1.12,2013-02-21 20:06:00,
2013-02-21 15:08:00,27.5,10.4,29.74,NW,316,5.0,10.0,48,0.00,,,0.00,Wunderground v.1.12,2013-02-21 20:08:00,
2013-02-21 15:13:00,27.6,10.9,29.74,WNW,286,6.0,10.0,49,0.00,,,0.00,Wunderground v.1.12,2013-02-21 20:13:00,
2013-02-21 15:18:00,27.8,12.0,29.75,NW,319,5.0,8.0,51,0.00,,,0.00,Wunderground v.1.12,2013-02-21 20:18:00,
2013-02-21 15:24:00,27.8,11.5,29.75,NW,313,4.0,5.0,50,0.00,,,0.00,Wunderground v.1.12,2013-02-21 20:24:00,
2013-02-21 15:29:00,27.8,12.0,29.75,WNW,298,4.0,4.0,51,0.00,,,0.00,Wunderground v.1.12,2013-02-21 20:29:00,
2013-02-21 15:34:00,27.6,10.9,29.75,WNW,292,6.0,6.0,49,0.00,,,0.00,Wunderground v.1.12,2013-02-21 20:34:00,
2013-02-21 15:38:00,27.8,11.5,29.75,WNW,293,5.0,17.0,50,0.00,,,0.00,Wunderground v.1.12,2013-02-21 20:38:00,
2013-02-21 15:40:00,27.6,11.4,29.75,West,280,7.0,7.0,50,0.00,,,0.00,Wunderground v.1.12,2013-02-21 20:40:00,
2013-02-21 15:46:00,27.6,11.8,29.76,NW,315,7.0,7.0,51,0.00,,,0.00,Wunderground v.1.12,2013-02-21 20:46:00,
2013-02-21 15:53:00,27.6,11.8,29.76,West,279,6.0,7.0,51,0.00,,,0.00,Wunderground v.1.12,2013-02-21 20:53:00,
2013-02-21 15:59:00,27.5,11.3,29.77,WNW,299,6.0,6.0,50,0.00,,,0.00,Wunderground v.1.12,2013-02-21 20:59:00,
2013-02-21 16:04:00,27.5,11.3,29.77,WNW,288,7.0,8.0,50,0.00,,,0.00,Wunderground v.1.12,2013-02-21 21:04:00,
2013-02-21 16:08:00,27.5,11.7,29.77,NW,315,7.0,20.0,51,0.00,,,0.00,Wunderground v.1.12,2013-02-21 21:08:00,
2013-02-21 16:10:00,27.5,10.8,29.77,West,268,9.0,10.0,49,0.00,,,0.00,Wunderground v.1.12,2013-02-21 21:10:00,
2013-02-21 16:16:00,27.5,11.7,29.78,WNW,285,9.0,9.0,51,0.00,,,0.00,Wunderground v.1.12,2013-02-21 21:16:00,
2013-02-21 16:21:00,27.6,11.8,29.78,NW,305,8.0,10.0,51,0.00,,,0.00,Wunderground v.1.12,2013-02-21 21:21:00,
2013-02-21 16:28:00,27.6,11.4,29.78,West,278,7.0,12.0,50,0.00,,,0.00,Wunderground v.1.12,2013-02-21 21:28:00,
2013-02-21 16:33:00,27.6,11.8,29.79,WNW,283,6.0,12.0,51,0.00,,,0.00,Wunderground v.1.12,2013-02-21 21:33:00,
2013-02-21 16:36:00,27.6,11.4,29.79,WNW,293,8.0,20.0,50,0.00,,,0.00,Wunderground v.1.12,2013-02-21 21:36:00,
2013-02-21 16:38:00,27.6,11.8,29.79,West,281,5.0,11.0,51,0.00,,,0.00,Wunderground v.1.12,2013-02-21 21:38:00,
2013-02-21 16:43:00,27.6,11.8,29.79,WNW,298,6.0,11.0,51,0.00,,,0.00,Wunderground v.1.12,2013-02-21 21:43:00,
2013-02-21 16:49:00,27.6,11.8,29.80,NW,314,5.0,5.0,51,0.00,,,0.00,Wunderground v.1.12,2013-02-21 21:49:00,
2013-02-21 16:55:00,27.6,11.4,29.80,WNW,296,6.0,7.0,50,0.00,,,0.00,Wunderground v.1.12,2013-02-21 21:55:00,
2013-02-21 17:01:00,27.6,11.4,29.82,NW,320,6.0,6.0,50,0.00,,,0.00,Wunderground v.1.12,2013-02-21 22:01:00,
2013-02-21 17:06:00,27.8,12.0,29.82,WNW,298,5.0,7.0,51,0.00,,,0.00,Wunderground v.1.12,2013-02-21 22:06:00,
2013-02-21 17:07:00,27.6,11.8,29.82,WNW,293,5.0,19.0,51,0.00,,,0.00,Wunderground v.1.12,2013-02-21 22:07:00,
2013-02-21 17:13:00,27.6,11.8,29.82,WNW,284,6.0,10.0,51,0.00,,,0.00,Wunderground v.1.12,2013-02-21 22:13:00,
2013-02-21 17:21:00,27.2,11.4,29.83,WNW,296,6.0,6.0,51,0.00,,,0.00,Wunderground v.1.12,2013-02-21 22:21:00,
2013-02-21 17:26:00,27.0,11.3,29.83,NW,313,7.0,9.0,51,0.00,,,0.00,Wunderground v.1.12,2013-02-21 22:26:00,
2013-02-21 17:31:00,27.0,11.3,29.83,WNW,292,7.0,7.0,51,0.00,,,0.00,Wunderground v.1.12,2013-02-21 22:31:00,
2013-02-21 17:36:00,26.9,12.0,29.83,WNW,291,6.0,6.0,53,0.00,,,0.00,Wunderground v.1.12,2013-02-21 22:36:00,
2013-02-21 17:43:00,26.9,12.0,29.83,WNW,289,6.0,6.0,53,0.00,,,0.00,Wunderground v.1.12,2013-02-21 22:43:00,
2013-02-21 17:48:00,26.7,11.4,29.84,WNW,300,6.0,6.0,52,0.00,,,0.00,Wunderground v.1.12,2013-02-21 22:48:00,
2013-02-21 17:54:00,26.6,12.2,29.84,WNW,286,5.0,5.0,54,0.00,,,0.00,Wunderground v.1.12,2013-02-21 22:54:00,
2013-02-21 17:59:00,26.4,11.6,29.85,NW,312,5.0,9.0,53,0.00,,,0.00,Wunderground v.1.12,2013-02-21 22:59:00,
2013-02-21 18:04:00,26.3,11.5,29.85,NW,306,5.0,5.0,53,0.00,,,0.00,Wunderground v.1.12,2013-02-21 23:04:00,
2013-02-21 18:06:00,26.4,11.6,29.85,WNW,293,6.0,19.0,53,0.00,,,0.00,Wunderground v.1.12,2013-02-21 23:06:00,
2013-02-21 18:09:00,26.1,11.7,29.85,WNW,284,5.0,5.0,54,0.00,,,0.00,Wunderground v.1.12,2013-02-21 23:09:00,
2013-02-21 18:14:00,26.0,11.2,29.86,WNW,299,5.0,5.0,53,0.00,,,0.00,Wunderground v.1.12,2013-02-21 23:14:00,
2013-02-21 18:19:00,25.8,11.4,29.86,WNW,302,5.0,5.0,54,0.00,,,0.00,Wunderground v.1.12,2013-02-21 23:19:00,
2013-02-21 18:25:00,25.6,11.2,29.86,WNW,296,4.0,6.0,54,0.00,,,0.00,Wunderground v.1.12,2013-02-21 23:25:00,
2013-02-21 18:31:00,25.4,11.5,29.88,WNW,296,4.0,5.0,55,0.00,,,0.00,Wunderground v.1.12,2013-02-21 23:31:00,
2013-02-21 18:36:00,25.6,11.2,29.88,WNW,293,5.0,18.0,54,0.00,,,0.00,Wunderground v.1.12,2013-02-21 23:36:00,
2013-02-21 18:38:00,25.3,11.4,29.88,WNW,298,4.0,5.0,55,0.00,,,0.00,Wunderground v.1.12,2013-02-21 23:38:00,
2013-02-21 18:44:00,25.1,11.2,29.89,WNW,300,4.0,7.0,55,0.00,,,0.00,Wunderground v.1.12,2013-02-21 23:44:00,
2013-02-21 18:50:00,25.1,11.2,29.89,WNW,294,5.0,5.0,55,0.00,,,0.00,Wunderground v.1.12,2013-02-21 23:50:00,
2013-02-21 18:55:00,25.0,11.1,29.89,West,278,4.0,14.0,55,0.00,,,0.00,Wunderground v.1.12,2013-02-21 23:55:00,
2013-02-21 19:01:00,25.0,11.1,29.90,WNW,294,5.0,10.0,55,0.00,,,0.00,Wunderground v.1.12,2013-02-22 00:01:00,
2013-02-21 19:05:00,25.0,11.1,29.90,WNW,293,5.0,14.0,55,0.00,,,0.00,Wunderground v.1.12,2013-02-22 00:05:00,
2013-02-21 19:06:00,25.1,11.2,29.90,NW,305,5.0,10.0,55,0.00,,,0.00,Wunderground v.1.12,2013-02-22 00:06:00,
2013-02-21 19:11:00,25.3,11.4,29.90,WNW,302,5.0,7.0,55,0.00,,,0.00,Wunderground v.1.12,2013-02-22 00:11:00,
2013-02-21 19:18:00,25.4,11.9,29.91,WNW,301,5.0,8.0,56,0.00,,,0.00,Wunderground v.1.12,2013-02-22 00:18:00,
2013-02-21 19:23:00,25.6,12.5,29.91,NW,317,4.0,8.0,57,0.00,,,0.00,Wunderground v.1.12,2013-02-22 00:23:00,
2013-02-21 19:28:00,25.6,12.1,29.91,NW,305,3.0,4.0,56,0.00,,,0.00,Wunderground v.1.12,2013-02-22 00:28:00,
2013-02-21 19:33:00,25.6,12.5,29.92,NW,312,3.0,5.0,57,0.00,,,0.00,Wunderground v.1.12,2013-02-22 00:33:00,
2013-02-21 19:36:00,25.6,12.1,29.92,WNW,293,4.0,14.0,56,0.00,,,0.00,Wunderground v.1.12,2013-02-22 00:36:00,
2013-02-21 19:39:00,25.6,12.5,29.92,NW,315,3.0,3.0,57,0.00,,,0.00,Wunderground v.1.12,2013-02-22 00:39:00,
2013-02-21 19:44:00,25.6,12.5,29.93,West,275,4.0,9.0,57,0.00,,,0.00,Wunderground v.1.12,2013-02-22 00:44:00,
2013-02-21 19:50:00,25.6,12.5,29.93,NW,313,4.0,7.0,57,0.00,,,0.00,Wunderground v.1.12,2013-02-22 00:50:00,
2013-02-21 19:56:00,25.6,12.5,29.93,NNW,329,4.0,6.0,57,0.00,,,0.00,Wunderground v.1.12,2013-02-22 00:56:00,
2013-02-21 20:01:00,25.6,12.5,29.94,NW,321,3.0,10.0,57,0.00,,,0.00,Wunderground v.1.12,2013-02-22 01:01:00,
2013-02-21 20:06:00,25.6,12.5,29.94,NW,315,3.0,12.0,57,0.00,,,0.00,Wunderground v.1.12,2013-02-22 01:06:00,
2013-02-21 20:08:00,25.6,12.5,29.94,WNW,283,3.0,5.0,57,0.00,,,0.00,Wunderground v.1.12,2013-02-22 01:08:00,
2013-02-21 20:13:00,25.7,12.6,29.94,WNW,292,4.0,11.0,57,0.00,,,0.00,Wunderground v.1.12,2013-02-22 01:13:00,
2013-02-21 20:18:00,25.8,13.0,29.95,WNW,299,4.0,4.0,58,0.00,,,0.00,Wunderground v.1.12,2013-02-22 01:18:00,
2013-02-21 20:23:00,25.8,13.0,29.95,WNW,292,4.0,5.0,58,0.00,,,0.00,Wunderground v.1.12,2013-02-22 01:23:00,
2013-02-21 20:29:00,25.7,12.9,29.96,NW,304,3.0,4.0,58,0.00,,,0.00,Wunderground v.1.12,2013-02-22 01:29:00,
2013-02-21 20:35:00,25.8,13.0,29.96,West,278,4.0,4.0,58,0.00,,,0.00,Wunderground v.1.12,2013-02-22 01:35:00,
2013-02-21 20:37:00,25.7,12.9,29.96,WNW,293,4.0,12.0,58,0.00,,,0.00,Wunderground v.1.12,2013-02-22 01:37:00,
2013-02-21 20:40:00,25.7,12.9,29.96,WNW,298,3.0,4.0,58,0.00,,,0.00,Wunderground v.1.12,2013-02-22 01:40:00,
2013-02-21 20:45:00,25.7,12.9,29.97,WNW,288,3.0,5.0,58,0.00,,,0.00,Wunderground v.1.12,2013-02-22 01:45:00,
2013-02-21 20:50:00,25.7,12.9,29.97,West,277,4.0,7.0,58,0.00,,,0.00,Wunderground v.1.12,2013-02-22 01:50:00,
2013-02-21 20:56:00,25.7,12.9,29.97,WNW,296,4.0,7.0,58,0.00,,,0.00,Wunderground v.1.12,2013-02-22 01:56:00,
2013-02-21 21:03:00,25.4,13.1,29.97,WNW,288,4.0,4.0,59,0.00,,,0.00,Wunderground v.1.12,2013-02-22 02:03:00,
2013-02-21 21:07:00,25.6,12.9,29.97,WNW,293,4.0,12.0,58,0.00,,,0.00,Wunderground v.1.12,2013-02-22 02:07:00,
2013-02-21 21:08:00,25.3,13.0,29.97,West,273,3.0,4.0,59,0.00,,,0.00,Wunderground v.1.12,2013-02-22 02:08:00,
2013-02-21 21:13:00,25.3,13.0,29.97,West,273,4.0,5.0,59,0.00,,,0.00,Wunderground v.1.12,2013-02-22 02:13:00,
2013-02-21 21:18:00,25.0,13.1,29.98,West,276,4.0,5.0,60,0.00,,,0.00,Wunderground v.1.12,2013-02-22 02:18:00,
2013-02-21 21:23:00,25.0,13.1,29.98,WNW,296,4.0,5.0,60,0.00,,,0.00,Wunderground v.1.12,2013-02-22 02:23:00,
2013-02-21 21:29:00,25.0,13.1,29.99,WNW,298,4.0,4.0,60,0.00,,,0.00,Wunderground v.1.12,2013-02-22 02:29:00,
2013-02-21 21:34:00,24.7,12.8,29.99,WNW,286,3.0,3.0,60,0.00,,,0.00,Wunderground v.1.12,2013-02-22 02:34:00,
2013-02-21 21:36:00,25.0,13.1,29.99,WNW,293,4.0,13.0,60,0.00,,,0.00,Wunderground v.1.12,2013-02-22 02:36:00,
2013-02-21 21:39:00,24.5,13.0,29.99,WNW,298,3.0,3.0,61,0.00,,,0.00,Wunderground v.1.12,2013-02-22 02:39:00,
2013-02-21 21:44:00,24.4,12.9,29.99,WNW,296,3.0,3.0,61,0.00,,,0.00,Wunderground v.1.12,2013-02-22 02:44:00,
2013-02-21 21:49:00,24.4,12.9,29.99,WNW,290,3.0,4.0,61,0.00,,,0.00,Wunderground v.1.12,2013-02-22 02:49:00,
2013-02-21 21:55:00,24.2,12.7,29.99,WNW,290,3.0,5.0,61,0.00,,,0.00,Wunderground v.1.12,2013-02-22 02:55:00,
2013-02-21 22:01:00,23.8,13.0,30.00,WNW,299,3.0,5.0,63,0.00,,,0.00,Wunderground v.1.12,2013-02-22 03:01:00,
2013-02-21 22:06:00,23.8,13.0,30.00,West,281,3.0,5.0,63,0.00,,,0.00,Wunderground v.1.12,2013-02-22 03:06:00,
2013-02-21 22:11:00,23.8,13.0,30.00,WNW,283,3.0,4.0,63,0.00,,,0.00,Wunderground v.1.12,2013-02-22 03:11:00,
2013-02-21 22:16:00,23.8,13.0,30.01,WNW,284,3.0,6.0,63,0.00,,,0.00,Wunderground v.1.12,2013-02-22 03:16:00,
2013-02-21 22:23:00,23.8,13.0,30.01,WNW,284,3.0,5.0,63,0.00,,,0.00,Wunderground v.1.12,2013-02-22 03:23:00,
2013-02-21 22:28:00,23.5,13.1,30.01,WNW,291,3.0,3.0,64,0.00,,,0.00,Wunderground v.1.12,2013-02-22 03:28:00,
2013-02-21 22:33:00,23.3,12.9,30.02,WNW,297,2.0,3.0,64,0.00,,,0.00,Wunderground v.1.12,2013-02-22 03:33:00,
2013-02-21 22:38:00,23.0,13.0,30.02,WNW,294,2.0,5.0,65,0.00,,,0.00,Wunderground v.1.12,2013-02-22 03:38:00,
2013-02-21 22:44:00,23.0,13.0,30.02,WNW,299,3.0,3.0,65,0.00,,,0.00,Wunderground v.1.12,2013-02-22 03:44:00,
2013-02-21 22:50:00,22.9,12.9,30.02,WNW,301,2.0,2.0,65,0.00,,,0.00,Wunderground v.1.12,2013-02-22 03:50:00,
2013-02-21 22:55:00,22.9,13.2,30.02,WNW,295,1.0,4.0,66,0.00,,,0.00,Wunderground v.1.12,2013-02-22 03:55:00,
2013-02-21 23:00:00,22.7,13.0,30.02,WNW,290,2.0,4.0,66,0.00,,,0.00,Wunderground v.1.12,2013-02-22 04:00:00,
2013-02-21 23:06:00,22.9,13.2,30.02,WNW,286,2.0,5.0,66,0.00,,,0.00,Wunderground v.1.12,2013-02-22 04:06:00,
2013-02-21 23:07:00,22.7,13.0,30.02,WNW,293,2.0,8.0,66,0.00,,,0.00,Wunderground v.1.12,2013-02-22 04:07:00,
2013-02-21 23:11:00,22.9,13.2,30.02,WNW,296,3.0,5.0,66,0.00,,,0.00,Wunderground v.1.12,2013-02-22 04:11:00,
2013-02-21 23:18:00,22.7,13.0,30.03,West,280,3.0,6.0,66,0.00,,,0.00,Wunderground v.1.12,2013-02-22 04:18:00,
2013-02-21 23:23:00,22.9,13.2,30.03,West,277,4.0,5.0,66,0.00,,,0.00,Wunderground v.1.12,2013-02-22 04:23:00,
2013-02-21 23:28:00,22.9,13.2,30.03,West,277,4.0,4.0,66,0.00,,,0.00,Wunderground v.1.12,2013-02-22 04:28:00,
2013-02-21 23:33:00,23.2,13.5,30.05,WNW,282,4.0,8.0,66,0.00,,,0.00,Wunderground v.1.12,2013-02-22 04:33:00,
2013-02-21 23:36:00,22.9,13.2,30.05,West,270,3.0,10.0,66,0.00,,,0.00,Wunderground v.1.12,2013-02-22 04:36:00,
2013-02-21 23:39:00,23.5,13.8,30.05,West,274,4.0,4.0,66,0.00,,,0.00,Wunderground v.1.12,2013-02-22 04:39:00,
2013-02-21 23:44:00,23.5,13.8,30.07,WNW,295,3.0,3.0,66,0.00,,,0.00,Wunderground v.1.12,2013-02-22 04:44:00,
2013-02-21 23:50:00,23.3,13.6,30.07,WNW,296,2.0,2.0,66,0.00,,,0.00,Wunderground v.1.12,2013-02-22 04:50:00,
2013-02-21 23:55:00,23.5,13.8,30.07,WNW,293,2.0,2.0,66,0.00,,,0.00,Wunderground v.1.12,2013-02-22 04:55:00,